Location: Julian California
(33.0790°N, 116.6010°W)
Time: 06:09:27
(UTC-07:00)

Cosmos 1656 Rocket - Pass Details

Date: 19 May 2017
Orbit: 797 x 845 km, 71.1° (Epoch: 28 May)

Event Time Altitude Azimuth Distance (km) Brightness Sun altitude
Rises 21:44:38 0° 346° (NNW) 3,308 7.7 -22.0°
Reaches altitude 10° 21:47:08 10° 352° (N) 2,379 6.8 -22.3°
Maximum altitude 21:52:22 48° 66° (ENE) 1,050 4.0 -23.1°
Enters shadow 21:53:03 45° 89° (E) 1,087 3.9 -23.2°
